Location: Esclangon
(44.2167°N, 6.2833°E)
Time: 04:57:07
(UTC+00:00)

Daily predictions for brighter satellites

Satellite Brightness Start Highest point End
(mag) Time Altitude Azimuth Time Altitude Azimuth Time Altitude Azimuth
Cosmos 2333 Rocket 3.9 00:03:37 10° N 00:07:04 29° NNE 00:07:04 29° NNE
SL-16 R/B 3.5 00:31:32 42° NE 00:31:32 42° NE 00:36:42 10° N
Cosmos 2219 Rocket 3.7 00:46:11 10° NNW 00:49:01 30° NNW 00:49:01 30° NNW
Cosmos 2227 Rocket 4.2 01:02:32 19° E 01:02:32 19° E 01:05:46 10° NE
ADEOS II 3.9 01:04:33 10° NE 01:08:11 24° E 01:08:11 24° E
SJ 16-02 3.7 01:14:58 22° NNE 01:14:58 22° NNE 01:16:33 10° NNE
COSMOS 2428 4.2 01:07:19 10° NNW 01:10:03 30° NNW 01:10:03 30° NNW
Resurs 1-4 Rocket 3.1 01:15:26 10° NNE 01:18:58 43° NNE 01:18:58 43° NNE
NOSS 0 Rocket 4.3 01:19:44 10° NNW 01:24:55 60° N 01:24:55 60° N
ARIANE 5 R/B 4.2 01:26:27 10° NE 01:30:48 26° E 01:31:01 26° E
H-2A R/B 4.2 01:34:44 22° ENE 01:34:53 22° ENE 01:38:08 10° NNE
SL-16 R/B 4.3 01:31:04 10° N 01:35:39 24° NE 01:40:13 10° ESE
Timation 2 Rocket 4.1 01:39:47 77° NW 01:39:47 77° NW 01:46:29 10° NNE
Lacrosse 5 rocket 3.8 01:41:23 17° N 01:41:23 17° N 01:42:52 10° NNE
NPP 4.2 01:39:54 10° N 01:44:03 53° N 01:44:03 53° N
CZ-2D R/B 2.8 01:41:33 10° N 01:45:47 50° NNW 01:45:47 50° NNW
Cosmos 1634 Rocket 4.5 01:42:35 10° N 01:48:39 55° ENE 01:50:17 43° SE
Cosmos 2333 Rocket 4.3 01:47:53 10° NW 01:49:02 16° NW 01:49:02 16° NW
Cosmos 372 Rocket 4.4 01:54:53 57° ENE 01:54:53 57° ENE 01:59:28 10° NNE
Cosmos 1937 Rocket 4.2 01:56:46 46° NNW 01:56:46 46° NNW 02:00:42 10° NNE
SL-08 R/B 3.8 01:58:01 60° ENE 01:58:01 60° ENE 02:02:40 10° N
USA 267 3.7 01:51:59 10° ENE 01:58:12 45° SE 01:58:52 44° SSE
Cosmos 2237 Rocket 2.3 01:53:45 10° NNW 01:58:51 72° N 01:58:51 72° N
Tsikada Rocket 3.9 02:00:24 81° W 02:00:31 81° W 02:06:58 10° N
CBERS-1 4.3 01:58:26 10° NNE 02:02:45 63° N 02:02:45 63° N
Cosmos 2034 Rocket 4.5 01:58:43 10° NNW 02:03:50 47° WNW 02:03:50 47° WNW
Meteor 1-27 Rocket 4.2 02:07:19 48° NW 02:07:19 48° NW 02:12:09 10° N
IRS-P3 4.0 02:09:00 10° NNE 02:14:22 89° WNW 02:14:22 89° WNW
SL-16 R/B 3.7 02:16:37 28° WNW 02:16:37 28° WNW 02:20:10 10° NNW
Cosmos 2297 Rocket 2.0 02:18:26 81° SSW 02:18:44 89° ESE 02:24:26 10° NNE
Cosmos 1743 4.3 02:16:03 10° N 02:18:11 31° N 02:18:11 31° N
USA 238 DEB 3.5 02:18:58 63° SSW 02:20:10 86° SE 02:27:06 10° NE
USA 238 3.5 02:19:03 63° SSW 02:20:17 85° ESE 02:27:13 10° NE
Cosmos 1975 3.8 02:16:35 10° N 02:20:27 43° ENE 02:20:39 42° E
STARLINK-1068 4.4 02:22:39 51° NE 02:22:39 51° NE 02:25:50 10° NE
BREEZE-M DEB (TANK) 3.7 02:22:14 49° NNW 02:22:23 49° N 02:27:39 10° ENE
Cosmos 2219 3.3 02:27:51 59° W 02:28:12 60° WNW 02:33:55 10° NNE
Cosmos 1048 Rocket 4.1 02:24:13 10° NNW 02:29:35 78° ENE 02:32:52 24° SSE
STARLINK-1060 4.0 02:32:12 60° NNE 02:32:12 60° NNE 02:35:46 10° NE
CZ-2C R/B 4.0 02:27:56 10° NNE 02:31:43 38° E 02:32:22 35° ESE
USA 234 4.2 02:26:40 10° E 02:32:51 47° NNE 02:39:02 10° NW
Meteor 1-28 Rocket 3.9 02:36:21 50° N 02:36:21 50° N 02:39:14 10° N
Cosmos 2279 Rocket 4.0 02:29:54 10° N 02:36:10 78° E 02:40:52 19° SSE
Meteor 1-18 Rocket 4.2 02:34:45 50° S 02:36:21 85° E 02:42:05 10° NNE
STARLINK-1030 3.9 02:37:00 63° N 02:37:00 63° N 02:40:46 10° NE
Cosmos 1125 Rocket 3.6 02:37:45 53° S 02:38:58 74° ESE 02:44:17 10° NNE
STARLINK-1020 3.8 02:41:48 62° NNW 02:41:48 62° NNW 02:45:45 10° NE
IRS-1D 4.2 02:38:50 10° N 02:43:17 37° WNW 02:43:17 37° WNW
NOSS 3-2 (A) 3.4 02:42:50 53° WSW 02:44:13 72° NW 02:50:46 10° NE
Cosmos 2227 Rocket 2.2 02:44:21 55° WSW 02:45:21 65° WNW 02:51:00 10° NNE
STARLINK-1052 3.9 02:46:34 58° NNW 02:46:36 58° NNW 02:50:43 10° NE
STARLINK-1063 4.4 02:48:09 40° SE 02:48:19 40° SE 02:52:12 10° ENE
CENTAUR R/B 2.6 02:46:11 40° SSW 02:48:23 69° ESE 02:55:14 10° NE
ADEOS II 2.4 02:43:40 10° N 02:48:41 46° WNW 02:49:08 45° W
Cosmos 2150 Rocket 4.2 02:50:33 49° W 02:51:24 54° WNW 02:56:47 10° NNE
CZ-2D R/B 3.3 02:47:11 10° NNE 02:51:25 83° WNW 02:51:41 76° SW
Cosmos 2298 Rocket 4.3 02:51:31 46° W 02:52:12 49° WNW 02:57:22 10° N
Cosmos 1782 Rocket 3.6 02:48:35 10° NNW 02:52:28 57° WNW 02:52:28 57° WNW
STARLINK-1064 4.2 02:52:56 43° SSE 02:53:16 44° SE 02:57:13 10° ENE
NOSS 3-3 (A) 4.4 02:46:03 10° NW 02:53:39 77° SW 03:02:00 10° SSE
NOSS 3-3 (C) 4.4 02:46:09 10° NW 02:53:45 77° WSW 03:02:07 10° SSE
Okean 1-7 3.4 02:55:06 47° WNW 02:55:06 47° WNW 02:59:08 10° N
STARLINK-1027 4.1 02:55:30 47° NW 02:56:04 51° NNW 03:00:14 10° NE
STARLINK-1033 4.0 02:56:08 48° NW 02:56:35 51° NNW 03:00:39 10° NE
SAR-Lupe-4 3.5 02:57:23 63° SE 02:57:53 79° ENE 03:01:29 10° N
STARLINK-1041 4.1 02:57:42 45° SSE 02:58:13 48° SE 03:02:12 10° ENE
Resurs 1-4 Rocket 3.9 02:56:50 10° NNW 02:59:53 16° WNW 03:00:03 16° WNW
Cosmos 1703 Rocket 4.3 03:00:17 37° WNW 03:00:17 37° WNW 03:04:12 10° N
IDEFIX/ARIANE 42P 2.7 02:57:15 10° NNE 03:02:28 74° ESE 03:05:38 24° S
STARLINK-1038 4.0 03:02:29 46° S 03:03:10 53° SE 03:07:13 10° ENE
STARLINK-1031 4.4 03:02:54 38° WNW 03:03:50 45° NNW 03:07:57 10° NE
BREEZE-M DEB (TANK) 2.1 03:05:30 60° S 03:05:45 63° SSE 03:08:04 10° ENE
STARLINK-1024 4.3 03:05:41 39° WNW 03:06:35 45° NNW 03:10:35 10° NE
STARLINK-1046 3.9 03:07:16 46° S 03:08:08 57° SE 03:12:13 10° ENE
Cosmos 2180 Rocket 4.4 03:02:48 10° N 03:09:02 76° W 03:15:18 10° S
CZ-4B R/B 2.3 03:05:38 10° SSE 03:09:02 52° ENE 03:12:26 10° N
ARIANE 5 R/B 3.0 03:05:07 10° N 03:10:02 43° WNW 03:11:22 36° WSW
H-2A R/B 3.0 03:11:49 29° WNW 03:11:49 29° WNW 03:14:30 10° NNW
BREEZE-M DEB (TANK) 3.0 03:05:50 10° WNW 03:11:10 49° SW 03:14:57 10° SE
STARLINK-1035 4.4 03:10:27 35° WNW 03:11:34 43° NNW 03:15:33 10° NE
CZ-2C R/B 4.0 03:07:40 10° NE 03:11:41 30° E 03:15:42 10° SSE
Spot 4 Rocket 4.2 03:06:44 10° N 03:11:47 55° WNW 03:13:35 36° SW
STARLINK-1039 3.8 03:12:03 45° SSW 03:13:07 63° SE 03:17:13 10° ENE
SAR-Lupe-1 3.9 03:14:18 45° S 03:15:15 70° WSW 03:18:52 10° NNW
NOSS 3-2 (C) 3.4 03:13:21 34° WSW 03:16:00 69° NW 03:22:34 10° NE
Cosmos 967 Rocket 4.4 03:09:40 10° NW 03:16:11 86° WSW 03:22:35 10° SSE
STARLINK-43 3.9 03:13:52 18° NW 03:16:26 58° NNE 03:20:04 10° ESE
Meteor 1-4 Rocket 3.4 03:13:54 18° SSE 03:16:27 51° E 03:20:08 10° NNE
STARLINK-1032 4.5 03:15:15 31° WNW 03:16:35 41° NNW 03:20:32 10° NE
Cosmos 389 Rocket 2.4 03:17:04 57° WSW 03:17:30 63° WNW 03:21:02 10° N
STARLINK-1045 3.7 03:16:51 42° SSW 03:18:05 69° SE 03:22:13 10° ENE
Lacrosse 5 rocket 3.9 03:18:19 10° NNW 03:20:09 13° N 03:22:03 10° NNE
SL-16 R/B 2.2 03:14:36 10° NNW 03:20:11 60° WSW 03:25:44 10° S
Meteor 1-13 Rocket 4.4 03:16:26 10° S 03:22:09 72° E 03:27:46 10° NNE
Cosmos 2082 3.9 03:20:11 31° SW 03:22:46 56° WNW 03:28:26 10° NNE
STARLINK-1050 3.6 03:21:38 39° SW 03:23:03 76° SE 03:27:13 10° ENE
Cosmos 1674 Rocket 4.3 03:20:20 10° S 03:24:37 54° E 03:28:54 10° NNE
CZ-2D R/B 4.3 03:25:01 10° NW 03:25:57 10° NW 03:26:54 10° WNW
ADEOS 4.4 03:20:59 10° NNE 03:26:04 50° E 03:31:07 10° S
deb Chang Zheng 4 3.5 03:21:59 10° N 03:26:18 76° WNW 03:28:51 24° SSW
STARLINK-1055 3.6 03:26:25 36° SW 03:28:02 82° SE 03:32:12 10° ENE
Okean 3 3.6 03:30:21 30° SW 03:32:04 51° WNW 03:36:10 10° N
STARLINK-1022 3.5 03:31:13 33° SW 03:33:01 88° SE 03:37:11 10° ENE
STARLINK-1042 3.5 03:35:59 30° WSW 03:37:59 86° NW 03:42:09 10° NE
Meteor 1-12 Rocket 4.3 03:32:34 10° NNW 03:38:30 68° W 03:44:17 10° S
COSMOS 2441 4.3 03:35:55 10° NNE 03:40:44 82° WNW 03:45:31 10° SSW
Cosmos 1544 4.2 03:38:13 10° NW 03:41:05 24° W 03:41:05 24° W
USA 267 3.5 03:34:55 10° NE 03:41:21 62° NNW 03:46:14 18° WSW
SeaSat 1 3.3 03:37:23 10° SE 03:42:10 53° ENE 03:46:59 10° NNW
Cosmos 2237 Rocket 4.1 03:39:49 10° WNW 03:40:36 12° WNW 03:40:36 12° WNW
STARLINK-1056 3.6 03:40:46 27° WSW 03:42:58 80° NW 03:47:08 10° NE
Cosmos 1603 4.2 03:37:32 10° NNW 03:43:06 62° ENE 03:48:42 10° SE
Cosmos 1300 Rocket 3.7 03:41:31 10° NNW 03:45:40 47° W 03:49:49 10° SSW
Cosmos 494 Rocket 4.4 03:41:07 10° NW 03:45:59 39° WSW 03:50:50 10° S
ATLAS 3B R/B 2.6 03:40:36 16° SW 03:46:04 88° NW 03:52:45 10° NE
Cosmos 2221 Rocket 4.2 03:45:25 22° SW 03:47:39 36° WNW 03:51:44 10° N
STARLINK-1054 3.6 03:45:32 24° WSW 03:47:56 74° NNW 03:52:05 10° NE
ATLAS 5 CENTAUR R/B 2.5 03:42:33 10° NW 03:48:22 87° NE 03:55:05 10° SE
Cosmos 1818 3.6 03:43:51 10° NW 03:49:11 56° WSW 03:54:28 10° SSE
STARLINK-1062 3.7 03:50:19 22° WSW 03:52:56 69° NNW 03:57:04 10° NE
Cosmos 2263 Rocket 2.7 03:48:30 10° S 03:54:04 63° ESE 03:59:43 10° NNE
Cosmos 1689 Rocket 1.9 03:52:01 10° S 03:55:01 75° WSW 03:58:02 10° NNW
Okean 2 Rocket 3.9 03:51:39 10° NNW 03:55:39 32° W 03:59:39 10° SSW
Cosmos 2151 Rocket 3.9 03:53:01 10° NNW 03:57:12 44° W 04:01:21 10° SSW
STARLINK-1053 3.8 03:55:07 19° WSW 03:57:56 65° NNW 04:02:03 10° NE
PSLV R/B 3.7 03:53:47 10° N 03:58:05 56° WNW 04:02:21 10° SSW
Cosmos 1356 4.1 03:55:07 10° NNW 03:58:13 32° W 04:01:17 10° SSW
BREEZE-M DEB (TANK) 3.1 03:55:01 10° WNW 03:58:30 43° NNE 04:00:42 10° E
Cosmos 1437 Rocket 4.0 03:54:43 10° SSE 03:58:37 45° E 04:02:31 10° NNE
Cosmos 1867 3.6 03:57:07 10° SSW 04:02:31 88° ESE 04:08:01 10° NE
STARLINK-1061 3.8 03:59:52 17° WSW 04:02:53 60° NNW 04:07:00 10° NE
Cosmos 1378 Rocket 3.5 03:58:49 10° SSW 04:03:09 77° W 04:07:32 10° N
Cosmos 2297 Rocket 3.9 04:00:14 11° W 04:03:35 18° NW 04:07:22 10° N
CZ-2C R/B 4.4 04:02:59 10° NNW 04:05:52 19° WNW 04:07:46 14° W
Cosmos 1092 Rocket 4.0 04:00:45 10° SSW 04:07:03 70° W 04:13:22 10° N
STARLINK-1067 3.9 04:04:40 16° WSW 04:07:54 56° NNW 04:12:00 10° NE
Aureole 3 Rocket 4.0 04:06:44 10° N 04:11:05 47° ENE 04:14:23 10° SSE
ATLAS CENTAUR R/B 2.6 04:11:35 12° WNW 04:12:48 18° NNW 04:14:41 10° NNE
STARLINK-1058 4.0 04:09:26 14° WSW 04:12:52 53° NNW 04:16:57 10° NE
Meteor 1-31 Rocket 3.3 04:09:28 10° NNE 04:13:23 64° E 04:17:16 10° S
USA 234 3.3 04:09:11 10° SE 04:15:41 68° SW 04:22:13 10° NW
Geosat 4.1 04:12:55 10° NNE 04:17:53 59° WNW 04:22:48 10° SW
STARLINK-1043 4.1 04:14:14 12° WSW 04:17:53 49° NNW 04:21:56 10° NE
Cosmos 2026 Rocket 3.9 04:11:56 10° SSW 04:18:01 78° W 04:24:07 10° N
STARLINK-1065 4.1 04:14:49 12° W 04:18:30 49° NNW 04:22:32 10° NE
STARLINK-48 4.5 04:15:10 10° NW 04:18:57 47° NNE 04:22:43 10° ESE
Cosmos 2251 Rocket 3.7 04:15:54 10° NNW 04:21:17 85° ENE 04:26:35 10° SSE
Timation 1 Rocket 4.4 04:16:45 10° SSW 04:22:44 73° WNW 04:28:46 10° NNE
STARLINK-41 4.4 04:23:02 10° NW 04:26:02 37° NNE 04:29:01 10° E
Cosmos 1428 Rocket 4.5 04:21:46 10° SSW 04:27:52 73° W 04:34:06 10° N
STARLINK-1063 4.3 04:23:55 10° W 04:27:53 44° NNW 04:31:53 10° NE
ALOS 3.1 04:24:46 10° NNE 04:29:22 54° E 04:33:57 10° S
Cosmos 2227 Rocket 4.2 04:27:54 10° WNW 04:30:35 13° NW 04:33:16 10° NNW
H-2A R/B 2.7 04:27:59 10° NNE 04:32:03 71° ESE 04:35:56 10° S
Cosmos 2227 4.4 04:26:33 10° SW 04:32:04 56° WNW 04:37:37 10° NNE
STARLINK-42 4.0 04:29:24 10° NW 04:32:31 47° NNE 04:35:39 10° ESE
STARLINK-1064 4.4 04:28:57 10° W 04:32:53 42° NNW 04:36:51 10° NE
SL-24 R/B 4.4 04:29:10 10° S 04:34:25 73° WSW 04:38:57 10° NNW
STARLINK-80 3.4 04:31:44 10° WNW 04:35:33 86° SSW 04:39:21 10° SE
